Regional Weather Roundup
Issued by NWS

Home | Current Version | Previous Version | Text Only | Print | Product List | Glossary Off
Versions: 1 2 3 4 5 6 7 8 9 10 11 12 13 14 15 16 17 18 19 20 21 22 23 24 25 26 27 28 29 30 31 32 33 34 35 36 37 38 39 40 41 42 43 44 45 46 47 48 49 50

000
ASUS43 KLMK 220102
RWRKY
KENTUCKY REGIONAL WEATHER ROUNDUP
NATIONAL WEATHER SERVICE LOUISVILLE KY
900 PM EDT SUN SEP 21 2014

NOTE "FAIR" INDICATES FEW OR NO CLOUDS BELOW 12,000 FEET
WITH NO SIGNIFICANT WEATHER AND/OR OBSTRUCTIONS TO VISIBILITY.

KYZ001>023-026-027-061>063-070>075-220200-
WESTERN AND SOUTH CENTRAL KENTUCKY

CITY           SKY/WX    TMP DP  RH WIND       PRES   REMARKS
PADUCAH        CLEAR     71  50  47 NW6       30.03R
HENDERSON      CLEAR     66  48  52 NW6       30.03R
OWENSBORO      CLEAR     69  51  52 NW7       30.03R
HOPKINSVILLE   CLEAR     69  49  48 NW6       30.02R
BOWLING GREEN  CLEAR     70  48  45 NW5       30.01R
GLASGOW        CLEAR     63  49  61 CALM      30.00R
$$

KYZ024-025-028>034-038-045-046-053-220200-
NORTH CENTRAL KENTUCKY

CITY           SKY/WX    TMP DP  RH WIND       PRES   REMARKS
LOUISVILLE/SDF CLEAR     70  49  47 N14       30.00R
LOUISVILLE/LOU CLEAR     69  49  48 N15G24    30.01R
FORT KNOX      CLEAR     64  52  63 NW6       30.00R
$$

KYZ035>037-039>044-047>052-055>060-089>105-220200-
NORTHEAST KENTUCKY

CITY           SKY/WX    TMP DP  RH WIND       PRES   REMARKS
LEXINGTON      CLEAR     66  49  54 NW6       29.99R
COVINGTON      PTCLDY    64  47  53 NW16G24   29.99R
FRANKFORT      CLEAR     66  49  54 NW9       29.98R
$$

KYZ054-064>069-076>088-106>120-220200-
SOUTHEAST KENTUCKY

CITY           SKY/WX    TMP DP  RH WIND       PRES   REMARKS
JACKSON        CLEAR     66  47  50 NW8       29.97R
LONDON         CLEAR     69  47  45 NW7       29.99R
SOMERSET       CLEAR     66  46  48 NW5       30.00R
MIDDLESBORO    PTCLDY    73  60  63 NW9G16    29.97R
MONTICELLO     CLEAR     67  50  54 NW5       30.01R
$$




USA.gov is the U.S. government's official web portal to all federal, state and local government web resources and services.